www.pogodaiklimat.ru

Погода и климат >> Архив погоды >> Малайзия >> Labuan


ПОГОДА в Labuan

  • Прогноз погоды в Labuan
  • Монитор погоды в Labuan
  • Климат города

АРХИВ ПОГОДЫ в Labuan

Время (UTC), дата Ветер
(напр.,м/с)
 
Видим.   Явления Облачность Т
(С)
Тd
(С)
f
(%)
Тe
(С)
Тes
(С)
Комфортность P
(гПа)
Po
(гПа)
Тmin
(С)
Tmax
(С)
R
(мм)
R24
(мм)
S
(см)
00 7.12 Ю 1 30 км 9/1 360 м
[Cu Sc Ac lent Cs]
+28.3 +26.0 87 +42 +44 опасность
перегрева
1008.7 1005.4 +23.8 7
03 7.12 В 1 30 км 9/1 400 м
[Cu Sc Ac lent Cs]
+31.2 +25.6 72 +46 +55 опасность
перегрева
1009.2 1005.9
06 7.12 З 2 30 км 9/4 420 м
[Cb cap Ac lent Cs]
+29.6 +26.5 83 +45 +50 опасность
перегрева
1006.2 1002.9
09 7.12 В 1 30 км в посл. час гроза {дождь} 10/3 400 м
[Cb cap Ac As Cs]
+27.4 +26.1 93 +41 +42 опасность
перегрева
1006.5 1003.2
12 7.12 В 1 20 км зарница {гроза, дождь} 9/4 300 м
[Cb cap Ac As Cs]
+26.9 +25.8 94 +40 +40 очень
душно
1008.5 1005.2 +31.5 0.2
15 7.12 ЮЗ 2 20 км зарница 9/3 360 м
[Cb cap Ac As Cs]
+26.5 +25.7 95 +39 +39 очень
душно
1009.4 1006.1
18 7.12 ЮЗ 1 20 км 9/1 400 м
[Cu Sc Ac trans Ci sp]
+25.9 +25.1 95 +37 +37 очень
душно
1008.5 1005.2
21 7.12 штиль 0 20 км 9/1 360 м
[Cu Sc Ac lent Ci sp]
+25.5 +24.9 96 +36 +36 очень
душно
1008.1 1004.8
00 8.12 ЮЗ 1 28 км 9/1 360 м
[Cu Sc Ac lent Ci sp]
+27.1 +25.6 92 +40 +42 очень
душно
1009.9 1006.6 +25.3 0.2
03 8.12 Ю 2 28 км 9/3 360 м
[Cu Sc Ac lent Ci sp]
+29.7 +26.0 81 +45 +51 опасность
перегрева
1010.5 1007.2
06 8.12 СЗ 2 28 км 9/3 300 м
[Cu Sc Ac lent Ci sp]
+31.1 +26.7 77 +48 +53 опасность
перегрева
1007.9 1004.6
09 8.12 С 3 15 км осадки на расстоянии 9/3 300 м
[Cu Sc Ac lent Ci sp]
+29.7 +25.2 77 +43 +44 опасность
перегрева
1007.0 1003.7
12 8.12 С 1 20 км 9/1 300 м
[Cu Sc Ac As Cs]
+28.3 +25.5 85 +42 +42 опасность
перегрева
1009.3 1006.0 +31.4
15 8.12 ЮЗ 1 20 км 9/4 300 м
[Cu Sc Ac As Cs]
+26.8 +25.7 94 +40 +40 очень
душно
1010.0 1006.7
18 8.12 штиль 0 20 км 9/1 300 м
[Cu Sc Ac lent Ci sp]
+26.8 +25.9 95 +40 +40 очень
душно
1008.7 1005.4
21 8.12 штиль 0 20 км 9/1 300 м
[Cu Sc Ac lent Ci sp]
+25.8 +25.2 96 +37 +37 очень
душно
1008.9 1005.6
00 9.12 Ю 2 30 км 9/3 360 м
[Cu Sc Ac lent Ci sp]
+27.8 +26.0 90 +42 +43 опасность
перегрева
1010.5 1007.2 +25.5
03 9.12 ЮЗ 2 30 км 9/3 300 м
[Cu Sc Ac lent Ci fib]
+30.9 +25.8 74 +46 +52 опасность
перегрева
1010.4 1007.1
06 9.12 СЗ 3 30 км 9/3 360 м
[Cu Sc Ac lent Ci fib]
+31.0 +26.2 76 +47 +52 опасность
перегрева
1007.2 1003.9
09 9.12 СЗ 2 20 км гроза без осадков 9/5 300 м
[Cb cap Ac As Ci sp]
+29.1 +25.5 81 +43 +43 опасность
перегрева
1006.8 1003.5
12 9.12 СВ 2 15 км слабый дождь {гроза} 10/6 300 м
[Cb cap As op Cs]
+27.0 +25.9 94 +40 +40 очень
душно
1008.6 1005.3 +31.4 0.6
15 9.12 В 1 15 км в посл. час дождь 9/5 300 м
[Cb cap Ac As Cs]
+26.9 +26.0 95 +40 +40 очень
душно
1009.4 1006.1
18 9.12 В 2 20 км зарница {дождь} 9/3 360 м
[Cb cap Ac lent Ci sp]
+27.1 +25.4 90 +39 +39 очень
душно
1007.8 1004.5 0.2
21 9.12 штиль 0 20 км зарница 9/4 360 м
[Cb cap Ac lent Ci sp]
+25.5 +24.5 94 +36 +36 очень
душно
1007.7 1004.4
00 10.12 ЮВ 1 30 км 9/1 400 м
[Cu Sc Ac lent Ci sp]
+28.6 +25.7 84 +42 +44 опасность
перегрева
1010.2 1006.9 +25.1 0.8
03 10.12 ЮВ 1 30 км 9/1 450 м
[Cu Sc Ac lent Cs]
+30.9 +25.1 71 +44 +53 опасность
перегрева
1010.6 1007.3
06 10.12 СВ 4 30 км 9/1 450 м
[Cu Sc Ac lent Cs]
+30.8 +25.5 73 +45 +50 опасность
перегрева
1007.6 1004.3 0.4
09 10.12 СВ 4 10 км слабый ливневой дождь, в посл. час гроза 10/5 400 м
[Cu Sc Ac As Cs]
+28.4 +26.1 87 +43 +43 опасность
перегрева
1007.6 1004.3
12 10.12 В 3 20 км {гроза, дождь} 9/3 400 м
[Cu Sc Ac As Cs]
+27.2 +23.1 78 +36 +36 очень
душно
1009.0 1005.6 +31.4 0.0
15 10.12 С 1 20 км 9/1 400 м
[Cu Sc Ac lent Ci sp]
+26.2 +24.6 91 +37 +37 очень
душно
1009.1 1005.8
18 10.12 штиль 0 20 км 9/1 360 м
[Cb cap Ac lent Ci sp]
+25.0 +24.3 96 +35 +35 очень
душно
1008.0 1004.7
21 10.12 штиль 0 20 км 9/3 300 м
[Cu Sc Ac trans Ci sp]
+25.4 +24.8 96 +36 +36 очень
душно
1008.3 1005.0
00 11.12 ЮВ 1 30 км 9/1 360 м
[Cu Sc Ac lent Ci ing]
+28.9 +26.1 85 +44 +45 опасность
перегрева
1010.0 1006.7 +24.9 0.4
03 11.12 СВ 2 30 км 9/1 420 м
[Cu Sc Ac lent Ci sp]
+31.2 +24.6 68 +44 +51 опасность
перегрева
1010.2 1006.9
06 11.12 С 5 30 км 6/1 450 м
[Cu Sc Ac lent Ci sp]
+31.0 +24.7 69 +44 +49 опасность
перегрева
1007.9 1004.6
09 11.12 С 4 30 км 6/3 400 м
[Cb cap Ac lent Ci sp]
+29.7 +25.8 80 +44 +45 опасность
перегрева
1007.4 1004.1
12 11.12 С 3 20 км 9/4 360 м
[Cu Sc Ac lent Ci sp]
+28.9 +26.0 84 +43 +43 опасность
перегрева
1009.4 1006.1 +31.6
15 11.12 СВ 2 20 км {ливн. осадки} 9/3 300 м
[Cu Sc Ac lent Ci sp]
+27.9 +26.5 92 +43 +43 опасность
перегрева
1009.9 1006.6
18 11.12 ЮВ 1 20 км зарница 9/4 300 м
[Cb cap Ac lent Ci sp]
+27.4 +26.0 92 +41 +41 опасность
перегрева
1009.0 1005.7 2
21 11.12 Ю 1 20 км 9/1 360 м
[Cu Sc Ac lent Ci sp]
+26.4 +25.9 97 +39 +39 очень
душно
1009.4 1006.1
00 12.12 ЮВ 2 30 км 9/1 360 м
[Cu Sc Ac lent Ci sp]
+28.7 +26.6 88 +44 +46 опасность
перегрева
1011.1 1007.8 +26.2 2
03 12.12 ЮВ 2 30 км 9/1 360 м
[Cu Sc Ac lent Ci sp]
+31.2 +25.3 71 +45 +53 опасность
перегрева
1011.1 1007.8
06 12.12 СЗ 2 30 км 9/3 360 м
[Cu Sc Ac lent Ci sp]
+31.1 +25.9 74 +46 +52 опасность
перегрева
1008.6 1005.3
09 12.12 С 4 30 км 9/1 360 м
[Cu Sc Ac lent Ci sp]
+29.7 +25.4 78 +44 +44 опасность
перегрева
1007.9 1004.6
12 12.12 С 4 30 км 9/4 360 м
[Cu Sc Ac trans Ci sp]
+29.0 +25.7 82 +43 +43 опасность
перегрева
1009.9 1006.6 +31.8
15 12.12 СВ 5 20 км 9/4 300 м
[Cu Sc Ac lent Ci sp]
+28.8 +25.5 82 +42 +42 опасность
перегрева
1010.2 1006.9
18 12.12 СВ 2 20 км 9/1 300 м
[Cu Sc Ac lent Ci sp]
+28.1 +25.7 87 +42 +42 опасность
перегрева
1009.5 1006.2
21 12.12 штиль 0 20 км 9/3 300 м
[Cu Sc Ac lent Ci sp]
+26.3 +25.3 94 +38 +38 очень
душно
1009.6 1006.3
00 13.12 В 2 30 км 9/1 360 м
[Cu Sc Ac lent Ci sp]
+29.3 +24.1 74 +41 +42 опасность
перегрева
1011.7 1008.3 +25.8
03 13.12 СВ 2 30 км 8/1 450 м
[Cu Sc Ac lent Ci fib]
+30.9 +24.4 68 +43 +51 опасность
перегрева
1011.2 1007.9
06 13.12 СЗ 3 30 км 8/1 420 м
[Cu Sc Ac lent Ci fib]
+31.3 +25.7 72 +46 +53 опасность
перегрева
1008.9 1005.6
09 13.12 С 6 30 км 9/1 360 м
[Cb cap Ac lent Ci sp]
+29.6 +25.8 80 +44 +44 опасность
перегрева
1008.0 1004.7
12 13.12 СВ 5 20 км 9/3 360 м
[Cu Sc Ac lent Ci sp]
+29.0 +25.3 80 +42 +42 опасность
перегрева
1010.1 1006.8 +32.3
15 13.12 СВ 5 20 км 9/4 360 м
[Cu Sc Ac lent Ci sp]
+28.7 +25.1 81 +42 +42 опасность
перегрева
1010.5 1007.2
18 13.12 СВ 3 20 км 9/4 360 м
[Cu Sc Ac lent Cs]
+28.1 +25.4 85 +41 +41 опасность
перегрева
1009.7 1006.4

 

Местоположение метеостанции Labuan (Малайзия): широта 5.30 долгота 115.25 высота над уровнем моря 30 м.

В архиве по умолчанию представлена погода в Labuan за последнюю неделю. Архивные данные за месяц целиком и за предыдущие месяцы, начиная с января 2011 года, Вы можете получить, выбрав интересующий диапазон дат из раскрывающегося списка и нажав кнопку "Ввод!".


*Определитесь, кто Вы:
робот инопланетянин человек

Внимание! Время в таблицах - всемирное. Для получения местного времени необходимо прибавить поправку, которая в Labuan равна 8 ч.

Смотрите также архив погоды в соседних городах и на ближайших метеорологических станциях:

Погода в Brunei Airport (Бруней) (54 км)
Погода в Kota Kinabalu (Малайзия) (113 км)
Погода в Miri (Малайзия) (177 км)
Погода в Longbawan (Индонезия) (181 км)
Погода в Tawau (Малайзия) (313 км)
Погода в Sandakan (Малайзия) (318 км)
Погода в Tarakan (Индонезия) (337 км)
Погода в Bintulu (Малайзия) (339 км)
Погода в Tanjung Selor (Индонезия) (357 км)
Погода в Tanjung Redep (Индонезия) (430 км)

Пояснения к столбцам:

Ветер - указаны скорость ветра в м/с - средняя за 10 мин, порывы в срок и между сроками (в фигурных скобках) и направление, откуда дует ветер: С - северный, СВ - северо-восточный, В - восточный, ЮВ - юго-восточный, Ю - южный, ЮЗ - юго-западный, З - западный, СЗ - северо-западный.
Видимость - горизонтальная дальность видимости в метрах или километрах. При видимости от 1 до 10 км при отсутствии осадков обычно наблюдается дымка, при ухудшении видимости до 1 км и менее - туман. В сухую погоду видимость может ухудшаться дымом, пылью или мглою.
Явления - указаны атмосферные явления, наблюдавшиеся в срок или в последний час перед сроком; фигурными скобками обозначены явления, наблюдавшиеся между сроками (за 1-3 часа до срока); квадратными скобками обозначены град или гололедные отложения с указанием их диаметра в мм.
Облачность - указаны через наклонную черту общая и нижняя облачность в баллах и высота нижней границы облаков в метрах; квадратными скобками обозначены формы облаков: Ci - перистые, Cs - перисто-слоистые, Cc - перисто-кучевые, Ac - высококучевые, As - высокослоистые, Sc - слоисто-кучевые, Ns - слоисто-дождевые, Cu - кучевые, Cb - кучево-дождевые. Подробнее классификацию облаков см. в Атласе облаков (PDF).
T - Температура воздуха - температура, измеренная на высоте 2 м над землей.
Td - Температура точки росы - температура, при понижении до которой содержащийся в воздухе водяной пар достигнет насыщения.
f - Относительная влажность воздуха - влажноcть воздуха, измеренная на высоте 2 м над землей.
Te - Эффективная температура - температура, которую ощущает одетый по сезону человек в тени. Характеристика душности погоды. При расчете учитывается влияние влажности воздуха и скорости ветра на теплоощущения человека.
Tes - Эффективная температура на солнце - температура, которую ощущает человек, с поправкой на солнечный нагрев. Характеристика знойности погоды. Зависит от высоты солнца над горизонтом, облачности и скорости ветра. Ночью, в пасмурную погоду, а также при ветре 12 м/с и более поправка равна нулю.
P - Атмосферное давление - приведенное к уровню моря атмосферное давление.
Po - Атмосферное давление - измеренное на уровне метеостанции атмосферное давление.
Tmin - Минимальная температура - минимум температуры воздуха на высоте 2 м над землей.
Tmax - Максимальная температура - максимум температуры воздуха на высоте 2 м над землей.
R - Количество осадков - Количество выпавших осадков за период времени, мм. При наведении курсора мыши на число - период времени, за который выпало указанное количество осадков.
R24 - Количество осадков - Количество выпавших осадков за 24 часа, мм.
S - Снежный покров - Высота снежного покрова, см. При наведении курсора мыши на число - состояние снежного покрова и степень покрытия местности в баллах.